Weather in Mirpur Khas

Pakistan     25°31′14″N   69°00′48″E
temp.,
°C
wind,
m/s
gust,
m/s
humid.,
%
clouds,
%
prec.,
mm/h
press.,
hPa
HPBL,
m
14 may, fri
fri1423:00+31sw916450 0.0 999525
02:00+29sw815570 0.0 998544
05:00+28sw813700 0.0 999507
08:00+30sw811580 0.0 1001638
11:00+39wsw88220 0.0 10001443
14:00+43sw65120 0.0 9972856
17:00+42sw54110 0.0 9963792
20:00+35sw1013280 0.0 998609
15 may, sat
sat1523:00+31sw813431 0.0 1000553
02:00+29sw712580 0.0 999517
05:00+28sw61171100 0.0 999471
08:00+31sw78540 0.0 1001561
11:00+39ssw55234 0.0 10001215
14:00+43ssw531126 0.0 9973630
17:00+43ssw4492 0.0 9964087
20:00+35ssw8133337 0.0 998457
16 may, sun
sun1623:00+33sw71232100 0.0 1000392
02:00+30sw61244100 0.0 999315
05:00+29s35484 0.0 1000118
08:00+33sw4534100 0.0 1002407
11:00+39ne2217100 0.0 10011031
14:00+43e4311100 0.0 9993631
17:00+43e229100 0.0 9973963
20:00+37s221295 0.0 99923
17 may, mon
mon1723:00+35w481799 0.0 1000126
02:00+35nw481660 0.0 998175
05:00+34nne81522100 0.0 999503
08:00+36ne71321100 0.0 1002677
11:00+40ene5714100 0.0 10011664
14:00+39ese6717100 0.0 1000754
17:00+35e3631100 0.0 999262
20:00+35ene483198 0.0 1000202
18 may, tue
tue1823:00+35ese71233100 0.0 1001606
02:00+34ese71337100 0.0 1001619
05:00+32e4940100 0.0 1000437
08:00+32ese81341100 0.0 1003706
11:00+35e81135100 0.4 10021458
14:00+36ese7838100 0.0 10001361
17:00+37e8835100 0.1 9992076
20:00+35e4937100 0.1 1000478